Regional Weather Roundup
Issued by NWS Kansas City/Pleasant Hill, MO

Home | Current Version | Previous Version | Graphics & Text | Print | Product List | Glossary Off
Versions: 1 2 3 4 5 6 7 8 9 10 11 12 13 14 15 16 17 18 19 20 21 22 23 24 25 26 27

000
ASUS43 KEAX 210010
RWREAX

WEATHER ROUNDUP FOR EASTERN KANSAS AND NORTHWEST MISSOURI
NATIONAL WEATHER SERVICE KANSAS CITY/PLEASANT HILL MO
700 PM CDT FRI APR 20 2018

KSZ040-057-103>105-MOZ028-029-037-043-210100-
...KANSAS CITY METROPOLITAN AREA...

CITY           SKY/WX    TMP DP  RH WIND       PRES   REMARKS
K.C. INTL      CLOUDY    59  26  28 SE12      30.25S
6HR MIN TEMP:  57; 6HR MAX TEMP:  63;

K.C. DOWNTOWN  CLOUDY    62  28  27 E9        30.24S
6HR MIN TEMP:  59; 6HR MAX TEMP:  65;

LEES SUMMIT    MOSUNNY   60  28  29 E13       30.24F
6HR MIN TEMP:  57; 6HR MAX TEMP:  63;

OLATHE - IXD   CLOUDY    61  26  26 E12       30.23F
6HR MIN TEMP:  58; 6HR MAX TEMP:  64;

OLATHE - OJC   CLOUDY    60  27  28 E12       30.23S
6HR MIN TEMP:  55; 6HR MAX TEMP:  62;

LAWRENCE       CLOUDY    62  27  26 E9        30.23S

$$

MOZ001>008-011>017-020>025-030>033-038>040-044>046-053-054-210100-
...NORTHERN AND CENTRAL MISSOURI...

CITY           SKY/WX    TMP DP  RH WIND       PRES   REMARKS
ST. JOSEPH     CLOUDY    61  25  25 E13       30.27R
6HR MIN TEMP:  58; 6HR MAX TEMP:  64;

MOSBY          MOCLDY    61  21  21 SE9G16    30.26S
WARRENSBURG    CLOUDY    59  25  27 E12       30.25S
WHITEMAN AFB   MOCLDY    60  25  26 E9        30.21F
6HR MIN TEMP:  58; 6HR MAX TEMP:  64;

CLINTON        PTCLDY    63  28  27 E7        30.24S
SEDALIA        MOCLDY    62  24  23 E12       30.26F
6HR MIN TEMP:  58; 6HR MAX TEMP:  64;

WARSAW         NOT AVBL
CHILLICOTHE      N/A     60  23  24 E5        30.30S
6HR MIN TEMP:  57; 6HR MAX TEMP:  63;

KIRKSVILLE     PTCLDY    57  21  24 SE10      30.34R
6HR MIN TEMP:  57; 6HR MAX TEMP:  62;


$$

MOZ041-047>049-056>058-063>065-088>090-097-210100-
...EASTERN AND SOUTHERN MISSOURI...

CITY           SKY/WX    TMP DP  RH WIND       PRES   REMARKS
ST. LOUIS INTL MOCLDY    59  23  25 E12       30.34F
6HR MIN TEMP:  58; 6HR MAX TEMP:  62;

SPIRIT OF STL  CLOUDY    60  22  23 E9        30.33F
COLUMBIA       PTCLDY    62  17  17 E10       30.29S
JEFFERSON CITY CLOUDY    64  14  14 E10       30.28F
OSAGE BEACH    CLOUDY    65  20  17 NE9       30.25F
SPRINGFIELD    CLOUDY    64  25  22 SE12      30.20F
BRANSON        MOCLDY    63  19  19 E12       30.22F
JOPLIN         CLOUDY    63  31  30 E16G24    30.17F
WEST PLAINS    PTCLDY    62  13  14 SE10      30.26F

$$

IAZ060-094-KSZ022-034>040-054-083-096-NEZ052-066-093-210100-
...KANSAS...SOUTHEAST NEBRASKA AND IOWA...

CITY           SKY/WX    TMP DP  RH WIND       PRES   REMARKS
TOPEKA         CLOUDY    62  27  26 E13       30.23R
6HR MIN TEMP:  60; 6HR MAX TEMP:  65;

MANHATTAN      CLOUDY    62  28  27 E10       30.20S
EMPORIA        CLOUDY    61  28  28 SE10      30.18R
CHANUTE        CLOUDY    63  28  26 E13       30.17F
WICHITA        PTSUNNY   63  28  26 SE20G25   30.11S
OMAHA          CLOUDY    60  26  27 SE10      30.30S
LINCOLN        CLOUDY    59  25  27 E7        30.28S
FALLS CITY     CLOUDY    59  24  26 E9        30.27R
LAMONI         PTSUNNY   57  26  30 E7        30.30S
DES MOINES     CLOUDY    58  25  28 E9        30.35R

$$





USA.gov is the U.S. government's official web portal to all federal, state and local government web resources and services.